[[{"header":{"parameterUnit":"m.s-1","parameterCategory":1,"la1":30.2991,"la2":30.254,"lo1":-89.0895,"lo2":-89.0444,"dy":0.0017,"dx":0.0017,"nx":28,"ny":28,"refTime":"2025-07-08T21:00:00:Z","depth":0,"parameterNumber":2,"parameterNumberName":"U-component_of_WINDS"},"data":[0,0,0,0,0,0,0,0,0,0,0,0,0,0,0,0,0,0,0,0,0,0,0,0,0,0,0,0,0,0,0,0,0,0,0,0,0,0,0,0,0,0,0,0,0,0,0,0,0,0,0,0,0,0,0,0,0,0,5.1085,5.1087,0,5.1278,5.128,5.1282,5.1262,5.1259,5.1256,5.1254,5.1449,5.1456,5.1464,0,0,0,0,0,0,0,0,0,0,0,0,0,5.0697,5.0705,5.1085,5.1087,5.109,5.1278,5.128,5.1283,5.1263,5.1259,5.1256,5.1252,5.1446,5.1455,5.1465,0,0,0,0,0,0,0,0,0,0,0,0,0,5.0875,5.0707,5.1084,5.1103,5.1106,5.1277,5.128,5.1284,5.1264,5.1259,5.1255,5.1251,5.1443,5.1454,5.1466,5.1631,0,0,5.1503,5.1508,0,0,0,0,0,0,0,0,5.0865,5.089,5.1097,5.1102,5.1106,5.1242,5.1215,5.14,5.1265,5.1204,5.1254,5.1248,5.1383,5.14,5.1446,5.164,5.1648,5.1504,5.1511,5.1516,5.152,0,0,0,0,0,0,0,5.0853,5.0881,5.1161,5.11,5.1106,5.11,5.1121,5.125,5.1316,5.1209,5.1208,5.1231,5.1385,5.1434,5.145,5.1651,5.1504,5.1514,5.1522,5.1526,5.199,5.1995,0,0,0,0,0,0,5.0837,5.0871,5.1155,5.1167,5.0972,5.1111,5.1134,5.1203,5.1315,5.1328,5.1235,5.1229,5.1416,5.1436,5.1457,5.1657,5.1516,5.1528,5.1534,5.1985,5.1992,5.1997,0,0,0,0,0,0,5.0828,5.0862,5.1147,5.1019,5.1055,5.1123,5.12,5.1209,5.1258,5.1335,5.1346,5.1274,5.1413,5.144,5.1588,5.1664,5.1533,5.1544,5.1979,5.1987,5.1994,5.2059,0,0,0,0,0,0,5.0817,5.0859,5.0923,5.1021,5.1062,5.1276,5.1205,5.1216,5.128,5.1274,5.1374,5.1386,5.1412,5.157,5.16,5.1678,5.1553,5.1973,5.1983,5.1992,5.2051,5.2068,5.2083,0,0,0,0,0,5.0804,5.0933,5.0926,5.0961,5.1143,5.128,5.1304,5.1331,5.1286,5.135,5.1399,5.1383,5.1651,5.1586,5.1619,5.1702,5.1968,5.198,5.1991,5.2043,5.2065,5.2083,0,0,0,0,0,0,5.0841,5.0946,5.094,5.1105,5.1184,5.1277,5.1359,5.1353,5.1446,5.1437,5.1467,5.149,5.1639,5.1685,5.161,5.1867,5.1803,5.1822,5.1831,5.1852,5.1868,5.1854,5.1563,0,0,0,0,0,5.0869,5.0973,5.1058,5.1195,5.1236,5.129,5.1351,5.1366,5.1449,5.1482,5.1541,5.1622,5.1724,5.1791,5.1889,5.2057,5.2078,5.2131,5.2147,5.216,5.2176,5.2268,5.2292,5.2035,5.2035,5.2035,0,0,5.0927,5.0997,5.106,5.1205,5.1268,5.1374,5.1319,5.1433,5.1512,5.1499,5.1643,5.1689,5.1781,5.194,5.2013,5.1983,5.2251,5.2175,5.2184,5.2193,5.2282,5.2307,5.2328,5.2043,5.2041,5.204,0,0,5.1087,5.115,5.1272,5.1336,5.1433,5.1469,5.1498,5.1592,5.1623,5.1768,5.1761,5.1854,5.203,5.2096,5.2152,5.2338,5.2327,5.2369,5.2454,5.2544,5.2564,5.2582,5.2648,5.2672,5.2385,5.2385,5.2385,0,5.1146,5.1307,5.1335,5.1451,5.1514,5.1509,5.1632,5.1693,5.1816,5.186,5.1825,5.2046,5.2107,5.2281,5.2327,5.2373,5.2406,5.2358,5.2559,5.2578,5.2595,5.2658,5.2683,5.2389,5.2389,5.2388,5.2388,0,5.1375,5.1487,5.1573,5.1694,5.1767,5.1886,5.1931,5.2002,5.2011,5.205,5.2197,5.2271,5.2384,5.2427,5.2435,5.2603,5.2581,5.2553,5.2489,5.2623,5.2683,5.2708,5.2396,5.2394,5.2393,5.2392,0,0,5.1564,5.1699,5.173,5.1785,5.1892,5.1978,5.2097,5.2208,5.2269,5.2354,5.2454,5.2603,5.2578,5.2642,5.2658,5.2737,5.2879,5.2698,5.2701,5.2729,5.3068,5.3088,5.3116,5.2872,5.2877,5.2881,5.306,0,5.1734,5.1945,5.1974,5.216,5.2264,5.226,5.2363,5.2439,5.2479,5.2572,5.2616,5.2721,5.268,5.2718,5.2796,5.2845,5.2947,5.2833,5.2965,5.2969,5.2942,5.3148,5.317,5.3335,5.3084,5.3088,5.3091,0,5.1961,5.2054,5.2251,5.2344,5.2388,5.2481,5.2586,5.2675,5.2761,5.2785,5.2857,5.2863,5.2985,5.2917,5.3086,5.3007,5.3063,5.3095,5.3102,5.3115,5.3038,5.3166,5.3389,5.3413,5.3128,5.3125,5.3122,0,5.2079,5.2253,5.2394,5.2441,5.2553,5.2618,5.2667,5.2749,5.2815,5.2906,5.2949,5.3053,5.311,5.319,5.3225,5.3172,5.3391,5.3326,5.3414,5.3413,5.346,5.3456,5.3694,5.3496,5.3496,5.3495,5.3495,0,5.2266,5.2387,5.2448,5.2535,5.267,5.2702,5.2834,5.2881,5.2954,5.3049,5.3052,5.3141,5.3181,5.3276,5.3303,5.3439,5.3464,5.3486,5.3492,5.3486,5.3483,5.3523,5.3512,5.3502,5.3501,5.3499,5.3498,0,5.2421,5.2467,5.262,5.2714,5.274,5.2835,5.2915,5.2999,5.3038,5.3158,5.3188,5.325,5.3362,5.3404,5.354,5.3559,5.3715,5.3712,5.3686,5.3688,5.3773,5.3765,5.4045,5.4083,5.386,5.3862,5.3864,0,5.2537,5.263,5.2734,5.2799,5.2851,5.2954,5.3021,5.3056,5.3126,5.3231,5.3302,5.3414,5.3505,5.3684,5.3741,5.3845,5.3844,5.3935,5.3859,5.385,5.3845,5.3839,5.3848,5.3949,5.3951,5.3953,5.3954,0,5.2739,5.2758,5.2855,5.2961,5.3041,5.3125,5.3208,5.326,5.3307,5.3385,5.35,5.3571,5.3711,5.3822,5.3929,5.3979,5.3975,5.3978,5.4003,5.3998,5.3979,5.399,5.3724,5.3971,5.3969,5.3968,5.3967,5.3966,5.2878,5.2961,5.3047,5.3155,5.3221,5.3298,5.3381,5.3431,5.3528,5.3645,5.366,5.3783,5.3867,5.4011,5.4066,5.4162,5.4138,5.4175,5.4185,5.4193,5.4199,5.3964,5.4182,5.4181,5.4181,5.4181,5.418,0,5.308,5.3136,5.3235,5.3351,5.3436,5.3425,5.3516,5.3587,5.3696,5.3775,5.3866,5.3998,5.4105,5.417,5.4278,5.4343,5.4344,5.437,5.4366,5.4377,5.4215,5.4182,5.4368,5.4368,5.4368,5.4368,5.4368,5.4368,5.3196,5.3335,5.3363,5.3535,5.3589,5.3711,5.3764,5.3834,5.3898,5.4045,5.4135,5.4177,5.4251,5.4364,5.4462,5.4479,5.4518,5.4547,5.4561,5.4408,5.4389,5.437,5.4339,5.4555,5.4555,5.4715,5.4716,5.4717]},{"header":{"parameterUnit":"m.s-1","parameterCategory":1,"la1":30.2991,"la2":30.254,"lo1":-89.0895,"lo2":-89.0444,"dy":0.0017,"dx":0.0017,"nx":28,"ny":28,"refTime":"2025-07-08T21:00:00:Z","depth":0,"parameterNumber":3,"parameterNumberName":"V-component_of_WINDS"},"data":[0,0,0,0,0,0,0,0,0,0,0,0,0,0,0,0,0,0,0,0,0,0,0,0,0,0,0,0,0,0,0,0,0,0,0,0,0,0,0,0,0,0,0,0,0,0,0,0,0,0,0,0,0,0,0,0,0,0,-0.5307,-0.5302,0,-0.4833,-0.4827,-0.4822,-0.4688,-0.469,-0.4693,-0.4695,-0.4193,-0.4178,-0.4162,0,0,0,0,0,0,0,0,0,0,0,0,0,-0.6082,-0.6069,-0.5308,-0.5302,-0.5296,-0.4834,-0.4827,-0.4821,-0.4687,-0.469,-0.4694,-0.4697,-0.4199,-0.418,-0.4161,0,0,0,0,0,0,0,0,0,0,0,0,0,-0.5691,-0.6065,-0.5309,-0.5174,-0.5157,-0.4835,-0.4827,-0.4819,-0.4686,-0.469,-0.4694,-0.4698,-0.4205,-0.4182,-0.4158,-0.3932,0,0,-0.4086,-0.4075,0,0,0,0,0,0,0,0,-0.5713,-0.5662,-0.5199,-0.5182,-0.5163,-0.4824,-0.4916,-0.4521,-0.4685,-0.4864,-0.4695,-0.47,-0.4399,-0.4359,-0.4261,-0.3908,-0.3886,-0.4084,-0.4069,-0.4059,-0.4052,0,0,0,0,0,0,0,-0.574,-0.5682,-0.5119,-0.5193,-0.517,-0.5132,-0.5081,-0.4841,-0.4614,-0.4849,-0.4838,-0.4785,-0.4389,-0.4284,-0.4248,-0.3879,-0.4084,-0.4063,-0.4048,-0.4039,-0.3313,-0.3308,0,0,0,0,0,0,-0.5793,-0.5705,-0.5134,-0.5105,-0.5454,-0.5115,-0.5057,-0.4928,-0.4617,-0.4574,-0.4782,-0.478,-0.4323,-0.4276,-0.423,-0.3941,-0.4059,-0.4037,-0.4023,-0.3318,-0.3312,-0.3306,0,0,0,0,0,0,-0.581,-0.5743,-0.5153,-0.5402,-0.5324,-0.5097,-0.4953,-0.4917,-0.4812,-0.4566,-0.4524,-0.4717,-0.4324,-0.4264,-0.4007,-0.3922,-0.4026,-0.4004,-0.3324,-0.3316,-0.3309,-0.3364,0,0,0,0,0,0,-0.5833,-0.575,-0.5665,-0.5401,-0.5312,-0.4943,-0.4948,-0.4905,-0.4773,-0.4766,-0.4494,-0.4452,-0.4323,-0.4044,-0.3984,-0.3891,-0.3986,-0.333,-0.332,-0.3311,-0.3368,-0.3359,-0.3351,0,0,0,0,0,-0.5861,-0.5696,-0.5661,-0.5593,-0.5201,-0.4938,-0.4886,-0.4745,-0.4767,-0.4676,-0.4519,-0.4461,-0.3943,-0.4018,-0.395,-0.3849,-0.3335,-0.3323,-0.3312,-0.3372,-0.3361,-0.3351,0,0,0,0,0,0,-0.5949,-0.5659,-0.5617,-0.5364,-0.5178,-0.4917,-0.4798,-0.4738,-0.4537,-0.4539,-0.4367,-0.4307,-0.4062,-0.393,-0.402,-0.3612,-0.3637,-0.3611,-0.3706,-0.3693,-0.3685,-0.3719,-0.3966,0,0,0,0,0,-0.5941,-0.5757,-0.5511,-0.5311,-0.522,-0.5026,-0.4906,-0.4814,-0.4612,-0.4531,-0.4354,-0.4156,-0.3948,-0.3814,-0.3609,-0.3351,-0.3287,-0.3248,-0.3239,-0.3233,-0.3211,-0.3061,-0.3039,-0.3269,-0.3269,-0.327,0,0,-0.5918,-0.5737,-0.563,-0.5324,-0.5169,-0.4977,-0.496,-0.4758,-0.4612,-0.4498,-0.4246,-0.411,-0.3877,-0.3619,-0.3496,-0.3501,-0.3135,-0.3219,-0.3216,-0.3196,-0.3047,-0.3026,-0.3007,-0.3262,-0.3263,-0.3264,0,0,-0.5778,-0.5625,-0.544,-0.5287,-0.5054,-0.4926,-0.4883,-0.4631,-0.4538,-0.4284,-0.4194,-0.4016,-0.3662,-0.3499,-0.337,-0.3172,-0.3109,-0.311,-0.3062,-0.2918,-0.29,-0.2883,-0.2808,-0.2783,-0.309,-0.309,-0.3091,0,-0.5777,-0.549,-0.5351,-0.5154,-0.5019,-0.4915,-0.4723,-0.4579,-0.429,-0.4197,-0.421,-0.3764,-0.36,-0.33,-0.3253,-0.3153,-0.3093,-0.3137,-0.2915,-0.2896,-0.2878,-0.2804,-0.2777,-0.3092,-0.3092,-0.3091,-0.3091,0,-0.5498,-0.53,-0.5178,-0.4907,-0.4759,-0.4566,-0.4393,-0.426,-0.4182,-0.4052,-0.3793,-0.3594,-0.3346,-0.3269,-0.3188,-0.2957,-0.2967,-0.295,-0.297,-0.286,-0.2787,-0.2758,-0.3094,-0.3093,-0.3093,-0.3092,0,0,-0.5395,-0.5054,-0.501,-0.4885,-0.4623,-0.4464,-0.4265,-0.4028,-0.3915,-0.372,-0.3544,-0.325,-0.3232,-0.3086,-0.2987,-0.2862,-0.2712,-0.2858,-0.285,-0.2834,-0.244,-0.2451,-0.2421,-0.2673,-0.2667,-0.2662,-0.2458,0,-0.5218,-0.4863,-0.4733,-0.4439,-0.4251,-0.4151,-0.3976,-0.3794,-0.3668,-0.3486,-0.3345,-0.3137,-0.3133,-0.3044,-0.2916,-0.2758,-0.263,-0.2772,-0.2501,-0.2493,-0.2558,-0.2383,-0.2394,-0.2211,-0.2429,-0.2424,-0.2421,0,-0.4962,-0.477,-0.4459,-0.4219,-0.4135,-0.3982,-0.3753,-0.3584,-0.3374,-0.329,-0.313,-0.304,-0.2822,-0.2862,-0.2557,-0.2657,-0.2539,-0.2445,-0.2435,-0.2399,-0.2446,-0.2338,-0.2149,-0.212,-0.2375,-0.2379,-0.2382,0,-0.4913,-0.4576,-0.4345,-0.4242,-0.3958,-0.3852,-0.3727,-0.3522,-0.3388,-0.3187,-0.3098,-0.2874,-0.2749,-0.2576,-0.2426,-0.247,-0.2133,-0.2161,-0.2053,-0.2056,-0.1981,-0.1986,-0.1765,-0.1915,-0.1916,-0.1916,-0.1917,0,-0.4726,-0.4538,-0.4319,-0.4177,-0.3962,-0.3814,-0.3604,-0.3473,-0.3292,-0.3118,-0.3018,-0.2856,-0.2671,-0.2484,-0.2365,-0.2129,-0.2074,-0.1997,-0.1966,-0.2002,-0.2012,-0.1918,-0.1925,-0.1909,-0.191,-0.1912,-0.1913,0,-0.4631,-0.4479,-0.422,-0.3974,-0.3908,-0.376,-0.3547,-0.3402,-0.3275,-0.3056,-0.2996,-0.2793,-0.2568,-0.2404,-0.2112,-0.2032,-0.1777,-0.1749,-0.1849,-0.1833,-0.1732,-0.1742,-0.1438,-0.1388,-0.1578,-0.1576,-0.1575,0,-0.4519,-0.4373,-0.4113,-0.3993,-0.3871,-0.3677,-0.3541,-0.339,-0.3251,-0.3002,-0.2886,-0.2657,-0.2463,-0.2108,-0.1931,-0.1706,-0.1668,-0.1578,-0.1633,-0.1674,-0.166,-0.1669,-0.1652,-0.1568,-0.1567,-0.1566,-0.1565,0,-0.4334,-0.4267,-0.4078,-0.3861,-0.3703,-0.3524,-0.3343,-0.3249,-0.3065,-0.2914,-0.2686,-0.2537,-0.2242,-0.2012,-0.1771,-0.1637,-0.1567,-0.155,-0.1512,-0.1544,-0.1607,-0.1567,-0.1822,-0.1556,-0.1557,-0.1557,-0.1558,-0.1558,-0.4223,-0.4088,-0.3885,-0.3676,-0.3526,-0.336,-0.3212,-0.3068,-0.2877,-0.2627,-0.2549,-0.2312,-0.2103,-0.1774,-0.1638,-0.1447,-0.1448,-0.1395,-0.138,-0.1367,-0.1367,-0.1644,-0.1403,-0.1403,-0.1403,-0.1403,-0.1403,0,-0.4029,-0.3895,-0.3706,-0.3458,-0.3293,-0.3251,-0.3049,-0.2912,-0.2706,-0.2521,-0.2335,-0.2071,-0.1849,-0.1657,-0.1425,-0.1309,-0.1271,-0.1252,-0.1256,-0.1225,-0.1381,-0.1435,-0.1287,-0.1287,-0.1287,-0.1287,-0.1287,-0.1287,-0.3908,-0.3677,-0.3585,-0.3276,-0.3141,-0.2912,-0.28,-0.2644,-0.2496,-0.2208,-0.2025,-0.1903,-0.1713,-0.1467,-0.126,-0.1209,-0.1125,-0.1113,-0.1054,-0.1201,-0.1215,-0.1228,-0.1277,-0.1098,-0.1098,-0.0913,-0.0911,-0.091]}]]